TimeCST,TemperatureF,Dew PointF,Humidity,Sea Level PressureIn,VisibilityMPH,Wind Direction,Wind SpeedMPH,Gust SpeedMPH,PrecipitationIn,Events,Conditions,WindDirDegrees,DateUTC
12:18 AM,32.0,28.4,87,30.24,10.0,NNW,21.9,28.8,0.00,,Overcast,330,2013-02-01 06:18:00
12:56 AM,29.1,25.2,85,30.31,10.0,NNW,20.7,25.3,0.00,,Scattered Clouds,330,2013-02-01 06:56:00
1:56 AM,25.2,20.1,81,30.34,10.0,North,18.4,25.3,N/A,,Clear,350,2013-02-01 07:56:00
2:37 AM,24.8,19.4,80,30.32,10.0,NNW,15.0,-,N/A,,Mostly Cloudy,330,2013-02-01 08:37:00
2:56 AM,23.0,18.1,82,30.38,10.0,NNW,13.8,-,N/A,,Mostly Cloudy,330,2013-02-01 08:56:00
3:17 AM,23.0,15.8,74,30.34,10.0,NNW,20.7,-,N/A,,Scattered Clouds,340,2013-02-01 09:17:00
4:56 AM,18.1,10.0,71,30.44,10.0,North,-9999.0,-,N/A,,Partly Cloudy,0,2013-02-01 10:56:00
5:56 AM,17.1,9.1,71,30.47,10.0,North,-9999.0,-,N/A,,Clear,0,2013-02-01 11:56:00
6:56 AM,16.2,10.0,77,30.50,10.0,NW,10.4,-,N/A,,Clear,310,2013-02-01 12:56:00
7:56 AM,18.1,11.1,74,30.53,10.0,NW,12.7,-,N/A,,Clear,310,2013-02-01 13:56:00
8:56 AM,20.1,10.0,65,30.56,10.0,NNW,8.1,-,N/A,,Clear,330,2013-02-01 14:56:00
9:56 AM,22.1,10.0,60,30.58,10.0,North,8.1,-,N/A,,Clear,360,2013-02-01 15:56:00
10:56 AM,23.0,10.0,58,30.56,10.0,NNE,6.9,-,N/A,,Clear,20,2013-02-01 16:56:00
11:56 AM,25.2,11.1,55,30.55,10.0,NNW,6.9,-,N/A,,Clear,340,2013-02-01 17:56:00
12:56 PM,26.1,12.0,55,30.53,10.0,Variable,3.5,-,N/A,,Clear,0,2013-02-01 18:56:00
1:56 PM,28.0,11.1,49,30.51,10.0,WNW,5.8,-,N/A,,Clear,290,2013-02-01 19:56:00
2:56 PM,29.1,12.0,49,30.49,10.0,Calm,Calm,-,N/A,,Clear,0,2013-02-01 20:56:00
3:56 PM,31.1,13.1,47,30.49,10.0,Calm,Calm,-,N/A,,Clear,0,2013-02-01 21:56:00
5:56 PM,27.1,15.1,60,30.49,10.0,Calm,Calm,-,N/A,,Clear,0,2013-02-01 23:56:00
6:56 PM,26.1,17.1,69,30.49,10.0,Calm,Calm,-,N/A,,Clear,0,2013-02-02 00:56:00
7:56 PM,25.2,18.1,75,30.48,10.0,Calm,Calm,-,N/A,,Clear,0,2013-02-02 01:56:00
8:56 PM,23.0,18.1,82,30.45,10.0,Calm,Calm,-,N/A,,Clear,0,2013-02-02 02:56:00
9:56 PM,25.2,18.1,75,30.44,10.0,Calm,Calm,-,N/A,,Clear,0,2013-02-02 03:56:00
10:56 PM,25.2,18.1,75,30.43,10.0,Calm,Calm,-,N/A,,Clear,0,2013-02-02 04:56:00
11:56 PM,24.1,18.1,78,30.41,10.0,Calm,Calm,-,N/A,,Clear,0,2013-02-02 05:56:00